Regional Weather Roundup
Issued by NWS Lake Charles, LA

Current Version | Previous Version | Text Only | Print | Product List | Glossary On
Versions: 1 2 3 4 5 6 7 8 9 10 11 12 13 14 15 16 17 18 19 20 21 22 23 24 25 26 27 28 29 30 31 32 33 34 35 36 37 38 39 40 41 42 43 44 45 46 47 48 49 50
000
ASUS44 KLCH 200010
RWRLCH
RWRLCH
REGIONAL WEATHER ROUNDUP
NATIONAL WEATHER SERVICE LAKE CHARLES LA
700 PM CDT SUN APR 19 2015

Note: "fair" indicates few or no clouds below 12,000 feet with no
significant weather and/or obstructions to visibility.


ACROSS SOUTHEAST TEXAS

CITY           SKY/WX    TMP DP  RH WIND       PRES   REMARKS
BEAUMONT       MOCLDY    74  66  76 S10       29.74S
BEAUMONT CITY    N/A     73  67  81 S8        29.75R
ORANGE         MOCLDY    74  63  66 S13G18    29.76S
JASPER         CLOUDY    80  71  72 S12G18    29.74R
$$

ACROSS CENTRAL LOUISIANA

CITY           SKY/WX    TMP DP  RH WIND       PRES   REMARKS
LEESVILLE      MOCLDY    78  67  70 S15       29.68F
FULLERTON        N/A     80  66  62 VRB6      29.67F
ALEXANDRIA INT MOCLDY    76  65  68 S9        29.67F
ESLER FIELD    PTCLDY    76  65  68 S7        29.69F
DERIDDER         N/A     77  66  68 S14G21    29.74R
OAKDALE        MOCLDY    75  64  67 S9        29.72F
OPELOUSAS        N/A     76  62  62 S7        29.73F
$$

ACROSS SOUTHWEST AND SOUTH CENTRAL LOUISIANA

CITY           SKY/WX    TMP DP  RH WIND       PRES   REMARKS
SULPHUR        MOCLDY    76  65  68 S12       29.75F
LAKE CHARLES   MOCLDY    75  66  73 S9        29.74F
CHENNAULT INT  NOT AVBL
CAMERON PHI    CLEAR     75  70  83 SW14      29.78F HAZE
DEQUINCY         N/A     74  65  74 S6        29.73F
JENNINGS         N/A     75  64  68 SW8       29.75S
LAFAYETTE      PTCLDY    78  62  57 S10       29.75S
NEW IBERIA     PTCLDY    76  63  64 S8        29.76F
ABBEVILLE        N/A     75  63  65 S5        29.75F
PATTERSON      MOCLDY    75  61  60 SW7       29.78F
SALT POINT       N/A     77  68  73 CALM      29.75F
$$

SELECTED SITES ACROSS THE REGION

CITY           SKY/WX    TMP DP  RH WIND       PRES   REMARKS
HOUSTON BUSH   TSTM      66  59  77 N25G41    29.73F VSB 1
HOUSTON HOBBY  MOCLDY    79  71  76 S10       29.72R
GALVESTON      PTCLDY    75  72  90 S17       29.75F
COLLEGE STAT   SUNNY     79  59  50 NW7       29.74R
CONROE         CLOUDY    72  54  53 S7        29.73R
HUNTSVILLE     PTSUNNY   72  58  61 NW8       29.73R
LUFKIN         CLOUDY    76  64  66 W6        29.71S
SHREVEPORT     MOCLDY    70  61  73 S12       29.67R
MONROE         PTCLDY    78  65  63 S12       29.66F
NATCHEZ MS     CLEAR     75  63  64 S9        29.71F
BATON ROUGE    PTCLDY    79  64  60 S16       29.74F
N.O. INTL ARPT MOCLDY    78  61  55 SW9       29.76F
SLIDELL        PTCLDY    81  61  50 CALM      29.75F
$$

MARINE REPORTS

STATION/POSITION TIME  TEMP    WIND        PRES    VSBY  WAVE
                       AIR SEA DIR/SP/G                  HT/PER
                 (UTC) (F)     (DEG/KT/KT) (MB)    (MI)  (FT/S)
BUOY 30 S HIGH I 2350   75 73  190/ 12/ 16 1006.9S         3/ 7
SEA RIM ST PARK  0000   74     210/ 10/ 12 1007.9S
PORT ARTHUR      2312      74  210/ 11/ 15 1007.5F
SABINE PASS N    2300   76 73  210/ 13/ 19 1007.5F
TEXAS POINT      NOT AVBL
CALCASIEU PASS   2300   75 75  220/ 18/ 19   N/A
LK CHARLES BEACH 2312   76 71              1007.8R
MARSH ISLAND     NOT AVBL
FRESH WATER LOCK 2312   76 78  190/  8/ 11 1007.9F
AMERADA PASS     2300   77 76  200/  3/  5 1008.5F
$$


USA.gov is the U.S. government's official web portal to all federal, state and local government web resources and services.